[[{"header":{"parameterUnit":"m.s-1","parameterCategory":1,"la1":30.2991,"la2":30.254,"lo1":-89.0895,"lo2":-89.0444,"dy":0.0017,"dx":0.0017,"nx":28,"ny":28,"refTime":"2023-05-23T21:00:00:Z","depth":0,"parameterNumber":2,"parameterNumberName":"U-component_of_WINDS"},"data":[0,0,0,0,0,0,0,0,0,0,0,0,0,0,0,0,0,0,0,0,0,0,0,0,0,0,0,0,0,0,0,0,0,0,0,0,0,0,0,0,0,0,0,0,0,0,0,0,0,0,0,0,0,0,0,0,0,0,-2.8961,-2.8962,0,-2.9034,-2.9034,-2.9035,-2.8937,-2.8934,-2.893,-2.8927,-2.9003,-2.9009,-2.9014,0,0,0,0,0,0,0,0,0,0,0,0,0,-2.874,-2.8744,-2.8961,-2.8962,-2.8963,-2.9033,-2.9034,-2.9035,-2.8938,-2.8934,-2.893,-2.8926,-2.9002,-2.9008,-2.9014,0,0,0,0,0,0,0,0,0,0,0,0,0,-2.8827,-2.8746,-2.8961,-2.8923,-2.892,-2.9033,-2.9034,-2.9036,-2.8939,-2.8934,-2.8928,-2.8924,-2.9,-2.9007,-2.9015,-2.917,0,0,-2.9039,-2.9043,0,0,0,0,0,0,0,0,-2.8822,-2.8835,-2.8928,-2.8926,-2.8923,-2.8971,-2.8984,-2.9081,-2.894,-2.8932,-2.8927,-2.8921,-2.8997,-2.9005,-2.903,-2.9173,-2.9177,-2.904,-2.9045,-2.9048,-2.9051,0,0,0,0,0,0,0,-2.8816,-2.8831,-2.899,-2.8929,-2.8926,-2.8902,-2.8909,-2.9002,-2.8993,-2.8932,-2.8925,-2.8935,-2.8995,-2.9023,-2.9031,-2.9178,-2.904,-2.9047,-2.9052,-2.9055,-2.9452,-2.9458,0,0,0,0,0,0,-2.8814,-2.8827,-2.8987,-2.8992,-2.8858,-2.8911,-2.8918,-2.8961,-2.8992,-2.8992,-2.894,-2.893,-2.9012,-2.9022,-2.9034,-2.9218,-2.9048,-2.9056,-2.906,-2.9446,-2.9453,-2.946,0,0,0,0,0,0,-2.881,-2.8829,-2.8985,-2.8907,-2.8925,-2.892,-2.8969,-2.8965,-2.8993,-2.8997,-2.8995,-2.897,-2.9008,-2.9022,-2.9137,-2.9219,-2.9059,-2.9067,-2.944,-2.9448,-2.9456,-2.9587,0,0,0,0,0,0,-2.8804,-2.8828,-2.8887,-2.891,-2.893,-2.9087,-2.8974,-2.897,-2.9007,-2.8995,-2.9025,-2.9025,-2.9005,-2.9125,-2.9145,-2.9227,-2.9073,-2.9432,-2.9443,-2.9454,-2.9575,-2.9599,-2.9619,0,0,0,0,0,-2.8796,-2.8921,-2.8891,-2.891,-2.9003,-2.9092,-2.9103,-2.9077,-2.9014,-2.9073,-2.9075,-2.9024,-2.9206,-2.9138,-2.9159,-2.9245,-2.9427,-2.944,-2.9453,-2.9566,-2.9594,-2.9619,0,0,0,0,0,0,-2.8909,-2.8924,-2.889,-2.9025,-2.9058,-2.9075,-2.9149,-2.9108,-2.916,-2.9147,-2.9113,-2.912,-2.9243,-2.9254,-2.9178,-2.9396,-2.9306,-2.9324,-2.9385,-2.9412,-2.9434,-2.943,-2.9079,0,0,0,0,0,-2.895,-2.902,-2.9029,-2.9148,-2.9166,-2.9155,-2.9192,-2.9169,-2.9202,-2.9215,-2.9226,-2.926,-2.9325,-2.9369,-2.9428,-2.9575,-2.9581,-2.9645,-2.9667,-2.9685,-2.9702,-2.9781,-2.981,-2.9502,-2.9502,-2.9502,0,0,-2.9035,-2.9051,-2.9098,-2.9171,-2.9193,-2.9268,-2.9167,-2.925,-2.9305,-2.9228,-2.9337,-2.9346,-2.9382,-2.9514,-2.9572,-2.9527,-2.9787,-2.9701,-2.9716,-2.9723,-2.9798,-2.9827,-2.9853,-2.9511,-2.9509,-2.9508,0,0,-2.9229,-2.9247,-2.9349,-2.9373,-2.9408,-2.94,-2.9424,-2.9447,-2.945,-2.9559,-2.9503,-2.9567,-2.9679,-2.9708,-2.9737,-2.9939,-2.9895,-2.996,-3.0076,-3.0154,-3.0178,-3.02,-3.0274,-3.0301,-2.9976,-2.9976,-2.9976,0,-2.9331,-2.944,-2.9407,-2.9494,-2.9528,-2.946,-2.9563,-2.9588,-2.9642,-2.9667,-2.9615,-2.9755,-2.9774,-2.9912,-2.9961,-2.9986,-3.0014,-2.9958,-3.0177,-3.0198,-3.0218,-3.0288,-3.0316,-2.9984,-2.9983,-2.9982,-2.9981,0,-2.9564,-2.9641,-2.9719,-2.9771,-2.9814,-2.9909,-2.989,-2.9937,-2.991,-2.9907,-3.0019,-3.0039,-3.0102,-3.0132,-3.0106,-3.0267,-3.0238,-3.0182,-3.0092,-3.0256,-3.0322,-3.0348,-2.9995,-2.9992,-2.999,-2.9988,0,0,-2.9834,-2.9866,-2.9895,-2.9919,-2.9951,-3.001,-3.0102,-3.0163,-3.0205,-3.0242,-3.032,-3.0415,-3.0364,-3.0397,-3.0373,-3.0441,-3.0603,-3.0377,-3.0377,-3.0421,-3.0783,-3.0827,-3.0859,-3.0572,-3.0577,-3.0581,-3.0781,0,-3.0029,-3.0187,-3.016,-3.0314,-3.0385,-3.032,-3.04,-3.0429,-3.0429,-3.0489,-3.0488,-3.0557,-3.0483,-3.0503,-3.0567,-3.057,-3.0676,-3.0554,-3.0645,-3.0649,-3.0641,-3.0893,-3.0939,-3.1127,-3.0806,-3.081,-3.0813,0,-3.0278,-3.0326,-3.0487,-3.0509,-3.0538,-3.061,-3.0664,-3.0722,-3.0753,-3.0748,-3.0784,-3.0748,-3.0839,-3.0745,-3.0871,-3.079,-3.0824,-3.0831,-3.0838,-3.0848,-3.0743,-3.0912,-3.1186,-3.1216,-3.0853,-3.085,-3.0847,0,-3.0462,-3.0566,-3.0676,-3.0697,-3.0725,-3.0777,-3.0791,-3.0817,-3.0856,-3.0902,-3.0927,-3.0984,-3.1016,-3.1061,-3.1041,-3.0974,-3.1172,-3.1076,-3.1172,-3.1173,-3.1219,-3.1217,-3.1506,-3.1237,-3.1237,-3.1236,-3.1236,0,-3.0685,-3.0787,-3.0759,-3.0827,-3.0939,-3.0906,-3.1018,-3.1024,-3.1047,-3.1116,-3.1063,-3.1128,-3.1096,-3.116,-3.1144,-3.1252,-3.1267,-3.1266,-3.1261,-3.1273,-3.1273,-3.1297,-3.1285,-3.1244,-3.1242,-3.1241,-3.124,0,-3.091,-3.0895,-3.1012,-3.1027,-3.1034,-3.1116,-3.113,-3.1194,-3.1188,-3.1275,-3.1294,-3.1286,-3.1357,-3.1341,-3.1419,-3.1409,-3.1546,-3.1523,-3.1536,-3.1531,-3.1629,-3.1621,-3.1946,-3.1988,-3.169,-3.1693,-3.1695,0,-3.1055,-3.1132,-3.1156,-3.1197,-3.1215,-3.1283,-3.1322,-3.1291,-3.1334,-3.1375,-3.1435,-3.1501,-3.1554,-3.1671,-3.1673,-3.1733,-3.1713,-3.1822,-3.1722,-3.1731,-3.1717,-3.1714,-3.1723,-3.1843,-3.1847,-3.185,-3.1852,0,-3.1314,-3.1302,-3.136,-3.1416,-3.1463,-3.1505,-3.1543,-3.158,-3.1552,-3.1603,-3.1675,-3.1716,-3.1795,-3.1863,-3.1918,-3.1932,-3.1889,-3.1883,-3.1909,-3.1923,-3.1928,-3.1929,-3.1593,-3.1877,-3.1874,-3.1872,-3.1871,-3.187,-3.1505,-3.1571,-3.1598,-3.1664,-3.1688,-3.1724,-3.1785,-3.1787,-3.1846,-3.1909,-3.1887,-3.197,-3.1999,-3.2068,-3.2089,-3.2154,-3.2113,-3.215,-3.216,-3.2171,-3.2184,-3.1915,-3.2164,-3.2163,-3.2162,-3.2162,-3.2161,0,-3.1763,-3.1777,-3.1838,-3.1892,-3.1944,-3.1896,-3.1934,-3.1982,-3.2055,-3.2086,-3.2138,-3.2221,-3.2286,-3.2292,-3.2353,-3.2404,-3.2386,-3.2421,-3.2419,-3.2423,-3.2216,-3.2189,-3.2435,-3.2435,-3.2435,-3.2435,-3.2435,-3.2435,-3.1904,-3.2013,-3.2005,-3.2125,-3.2138,-3.2219,-3.2246,-3.2279,-3.2303,-3.2398,-3.2452,-3.2454,-3.2475,-3.2537,-3.2595,-3.2595,-3.2621,-3.2665,-3.2658,-3.2465,-3.2438,-3.2412,-3.2386,-3.267,-3.2671,-3.286,-3.2862,-3.2863]},{"header":{"parameterUnit":"m.s-1","parameterCategory":1,"la1":30.2991,"la2":30.254,"lo1":-89.0895,"lo2":-89.0444,"dy":0.0017,"dx":0.0017,"nx":28,"ny":28,"refTime":"2023-05-23T21:00:00:Z","depth":0,"parameterNumber":3,"parameterNumberName":"V-component_of_WINDS"},"data":[0,0,0,0,0,0,0,0,0,0,0,0,0,0,0,0,0,0,0,0,0,0,0,0,0,0,0,0,0,0,0,0,0,0,0,0,0,0,0,0,0,0,0,0,0,0,0,0,0,0,0,0,0,0,0,0,0,0,-4.6576,-4.6576,0,-4.6592,-4.6592,-4.6593,-4.6531,-4.6529,-4.6527,-4.6526,-4.6541,-4.6543,-4.6545,0,0,0,0,0,0,0,0,0,0,0,0,0,-4.6488,-4.649,-4.6576,-4.6576,-4.6576,-4.6592,-4.6592,-4.6593,-4.6531,-4.6529,-4.6527,-4.6525,-4.654,-4.6542,-4.6545,0,0,0,0,0,0,0,0,0,0,0,0,0,-4.6518,-4.6491,-4.6576,-4.6548,-4.6545,-4.6592,-4.6592,-4.6593,-4.6532,-4.6529,-4.6526,-4.6524,-4.6539,-4.6542,-4.6545,-4.6619,0,0,-4.6555,-4.6556,0,0,0,0,0,0,0,0,-4.6516,-4.6521,-4.6551,-4.655,-4.6547,-4.6557,-4.6567,-4.6602,-4.6533,-4.6537,-4.6526,-4.6522,-4.6548,-4.655,-4.6559,-4.662,-4.6621,-4.6555,-4.6557,-4.6558,-4.6559,0,0,0,0,0,0,0,-4.6514,-4.652,-4.6582,-4.6552,-4.6549,-4.6533,-4.6534,-4.6573,-4.6558,-4.6536,-4.6532,-4.6535,-4.6546,-4.6556,-4.6559,-4.6621,-4.6555,-4.6558,-4.656,-4.6561,-4.6741,-4.6744,0,0,0,0,0,0,-4.6516,-4.6519,-4.6582,-4.6583,-4.6525,-4.6537,-4.6538,-4.6556,-4.6557,-4.6554,-4.6537,-4.6532,-4.6552,-4.6556,-4.656,-4.6645,-4.6558,-4.6561,-4.6563,-4.6738,-4.6742,-4.6745,0,0,0,0,0,0,-4.6514,-4.6522,-4.6581,-4.6549,-4.6556,-4.6541,-4.6562,-4.6558,-4.6568,-4.6558,-4.6554,-4.6551,-4.655,-4.6555,-4.6605,-4.6644,-4.6563,-4.6566,-4.6735,-4.674,-4.6744,-4.6817,0,0,0,0,0,0,-4.6512,-4.6522,-4.6551,-4.6551,-4.6558,-4.6627,-4.6565,-4.656,-4.6574,-4.6567,-4.6569,-4.6567,-4.6549,-4.66,-4.6608,-4.6647,-4.6568,-4.6731,-4.6737,-4.6742,-4.6811,-4.6823,-4.6834,0,0,0,0,0,-4.6509,-4.6571,-4.6553,-4.6561,-4.6593,-4.6629,-4.6633,-4.6611,-4.6578,-4.6606,-4.6599,-4.6567,-4.6639,-4.6606,-4.6614,-4.6655,-4.6729,-4.6735,-4.6742,-4.6806,-4.6821,-4.6834,0,0,0,0,0,0,-4.6576,-4.657,-4.655,-4.6614,-4.6623,-4.6619,-4.6654,-4.6628,-4.6647,-4.6639,-4.6611,-4.6612,-4.6666,-4.6666,-4.6628,-4.6726,-4.6678,-4.6686,-4.6724,-4.6738,-4.675,-4.6748,-4.6571,0,0,0,0,0,-4.6598,-4.6629,-4.6622,-4.6678,-4.6684,-4.6668,-4.6683,-4.6666,-4.6673,-4.6677,-4.6673,-4.6681,-4.6705,-4.6722,-4.6744,-4.6811,-4.681,-4.6843,-4.6855,-4.6864,-4.6871,-4.6905,-4.6919,-4.6767,-4.6767,-4.6766,0,0,-4.6644,-4.6645,-4.6666,-4.6692,-4.6697,-4.6727,-4.6672,-4.6707,-4.673,-4.6682,-4.6728,-4.6726,-4.6733,-4.6791,-4.6817,-4.6792,-4.6913,-4.6873,-4.688,-4.6882,-4.6913,-4.6928,-4.694,-4.6771,-4.677,-4.6769,0,0,-4.6743,-4.6748,-4.6794,-4.68,-4.6808,-4.6797,-4.6809,-4.6809,-4.6806,-4.6852,-4.6816,-4.6842,-4.6885,-4.6891,-4.6899,-4.7,-4.6971,-4.7008,-4.7068,-4.7101,-4.7113,-4.7123,-4.7157,-4.717,-4.7016,-4.7016,-4.7016,0,-4.6799,-4.6845,-4.6821,-4.6859,-4.6871,-4.6829,-4.6876,-4.6882,-4.6897,-4.6906,-4.6879,-4.6931,-4.6933,-4.6991,-4.7015,-4.7024,-4.7035,-4.7007,-4.7113,-4.7123,-4.7133,-4.7165,-4.7178,-4.702,-4.702,-4.7019,-4.7019,0,-4.6912,-4.6944,-4.6981,-4.6996,-4.7012,-4.7054,-4.7036,-4.7055,-4.7036,-4.7028,-4.7074,-4.7075,-4.7096,-4.7109,-4.7091,-4.7164,-4.7149,-4.7118,-4.7069,-4.7152,-4.7182,-4.7194,-4.7026,-4.7025,-4.7023,-4.7022,0,0,-4.7053,-4.7054,-4.7068,-4.7074,-4.7079,-4.7103,-4.7143,-4.7163,-4.7179,-4.7191,-4.7222,-4.7259,-4.723,-4.724,-4.7223,-4.7252,-4.733,-4.7217,-4.7217,-4.7237,-4.7408,-4.743,-4.7445,-4.7311,-4.7313,-4.7315,-4.7407,0,-4.7149,-4.7216,-4.7196,-4.7264,-4.7292,-4.7253,-4.7287,-4.7294,-4.7287,-4.731,-4.7302,-4.7328,-4.7289,-4.7294,-4.7322,-4.7314,-4.7363,-4.7308,-4.7338,-4.7339,-4.7336,-4.7461,-4.7484,-4.7571,-4.7419,-4.7421,-4.7422,0,-4.727,-4.7286,-4.7356,-4.7356,-4.7367,-4.7398,-4.7414,-4.7437,-4.7443,-4.7436,-4.7447,-4.7423,-4.746,-4.7412,-4.7463,-4.7425,-4.7437,-4.7435,-4.7438,-4.7438,-4.7385,-4.7463,-4.7599,-4.7611,-4.7441,-4.7439,-4.7438,0,-4.7363,-4.7402,-4.7449,-4.7456,-4.7457,-4.7479,-4.748,-4.7484,-4.7497,-4.7511,-4.7519,-4.7538,-4.7548,-4.7562,-4.7543,-4.7511,-4.7596,-4.7547,-4.759,-4.759,-4.7608,-4.7607,-4.7746,-4.7619,-4.7619,-4.7618,-4.7618,0,-4.7471,-4.7515,-4.7491,-4.752,-4.7567,-4.7543,-4.7591,-4.7588,-4.7591,-4.7618,-4.7586,-4.7611,-4.7585,-4.7608,-4.7594,-4.7637,-4.7642,-4.7636,-4.7631,-4.7638,-4.7638,-4.7644,-4.7636,-4.7622,-4.7621,-4.762,-4.762,0,-4.7583,-4.7569,-4.7617,-4.7614,-4.7614,-4.7649,-4.7646,-4.7672,-4.7663,-4.7696,-4.7703,-4.7688,-4.7714,-4.7697,-4.7722,-4.7712,-4.7768,-4.7755,-4.7766,-4.7762,-4.7804,-4.78,-4.795,-4.7968,-4.7831,-4.7833,-4.7834,0,-4.7652,-4.7685,-4.7685,-4.7701,-4.7704,-4.773,-4.7743,-4.7721,-4.7735,-4.7744,-4.7769,-4.7791,-4.7808,-4.785,-4.7841,-4.786,-4.7846,-4.7898,-4.7849,-4.7854,-4.7845,-4.7842,-4.7845,-4.7907,-4.7909,-4.791,-4.7911,0,-4.7775,-4.7766,-4.7787,-4.7805,-4.7822,-4.7835,-4.7845,-4.7859,-4.7836,-4.7855,-4.788,-4.7893,-4.7918,-4.794,-4.7956,-4.7956,-4.793,-4.7927,-4.7937,-4.7943,-4.7947,-4.7944,-4.779,-4.7923,-4.7922,-4.7921,-4.792,-4.792,-4.7867,-4.7893,-4.7897,-4.7921,-4.7926,-4.7936,-4.796,-4.7954,-4.7975,-4.7993,-4.7979,-4.8009,-4.8013,-4.8031,-4.8035,-4.8057,-4.8036,-4.8052,-4.8055,-4.8059,-4.8064,-4.7945,-4.806,-4.8059,-4.8059,-4.8059,-4.8059,0,-4.7986,-4.7987,-4.8009,-4.8024,-4.8042,-4.8017,-4.8026,-4.8043,-4.8069,-4.8076,-4.8093,-4.8121,-4.8142,-4.8135,-4.8154,-4.8173,-4.8161,-4.8178,-4.8176,-4.8176,-4.8083,-4.8071,-4.8188,-4.8188,-4.8188,-4.8188,-4.8187,-4.8187,-4.8051,-4.8094,-4.8086,-4.8131,-4.8131,-4.816,-4.8167,-4.8176,-4.8181,-4.8214,-4.8231,-4.8227,-4.8228,-4.8246,-4.8264,-4.8261,-4.8268,-4.829,-4.8283,-4.8195,-4.8183,-4.817,-4.8159,-4.8292,-4.8292,-4.8374,-4.8374,-4.8375]}]]